Printer-friendly version
Follow the MPC on Twitter Follow the MPC on Facebook The MPC blog
Minor Planet Center

MPEC 2007-W06 : 2007 VF191

The following Minor Planet Electronic Circular may be linked-to from your own Web pages, but must not otherwise be redistributed electronically.

A form allowing access to any MPEC is at the bottom of this page.


Read MPEC 2007-W05 Read MPEC 2007-W07


M.P.E.C. 2007-W06                                Issued 2007 Nov. 16, 15:06 UT

     The Minor Planet Electronic Circulars contain information on unusual
         minor planets and routine data on comets.  They are published
   on behalf of Commission 20 of the International Astronomical Union by the
          Minor Planet Center, Smithsonian Astrophysical Observatory,
                          Cambridge, MA 02138, U.S.A.

             Prepared using the Tamkin Foundation Computer Network

                              MPC@CFA.HARVARD.EDU
          URL http://www.cfa.harvard.edu/iau/mpc.html  ISSN 1523-6714

                                  2007 VF191

Observations:
     K07VJ1F* C2007 11 15.29366 04 47 18.70 +08 33 14.3          19.5 V EW006703
     K07VJ1F  C2007 11 15.30339 04 47 18.34 +08 33 53.1          20.0 V EW006703
     K07VJ1F  C2007 11 15.31315 04 47 17.98 +08 34 31.9          20.8 V EW006703
     K07VJ1F  C2007 11 15.32290 04 47 17.62 +08 35 12.8          20.0 V EW006703
     K07VJ1F  C2007 11 15.50344 04 47 11.07 +08 47 11.0                 EW006703
     K07VJ1F  C2007 11 15.50432 04 47 11.03 +08 47 16.7          20.2 V EW006703
     K07VJ1F  C2007 11 15.50520 04 47 10.99 +08 47 18.5                 EW006703
     K07VJ1F  C2007 11 15.50608 04 47 10.90 +08 47 21.0                 EW006703
     K07VJ1F  C2007 11 16.34410 04 46 53.19 +09 42 59.8          19.8 V EW006G96
     K07VJ1F  C2007 11 16.34536 04 46 53.17 +09 43 04.4          19.8 V EW006G96
     K07VJ1F  C2007 11 16.34663 04 46 53.11 +09 43 10.0          20.0 V EW006G96
     K07VJ1F  C2007 11 16.34789 04 46 53.05 +09 43 14.7          19.8 V EW006G96

Observer details:
703 Catalina Sky Survey.  Observer R. E. Hill.  Measurers E. C. Beshore,
    A. Boattini, G. J. Garradd, A. R. Gibbs, A. D. Grauer, R. E. Hill,
    R. A. Kowalski, S. M. Larson, R. H. McNaught.  0.68-m Schmidt + CCD.
G96 Mt. Lemmon Survey.  Observer A. Boattini.  Measurers E. C. Beshore,
    A. Boattini, G. J. Garradd, A. R. Gibbs, A. D. Grauer, R. E. Hill,
    R. A. Kowalski, S. M. Larson, R. H. McNaught.  1.5-m reflector + CCD.

Orbital elements:
2007 VF191                                               Earth MOID = 0.1771 AU
Epoch 2007 Oct. 27.0 TT = JDT 2454400.5                 MPC
M   4.12614              (2000.0)            P               Q
n   0.36315062     Peri.  318.96782     +0.88571402     -0.42769457
a   1.9457104      Node    67.20990     +0.46040210     +0.75943217
e   0.4182255      Incl.   11.29194     +0.05950272     +0.49024498
P   2.71           H   22.2           G   0.15           U   9
Residuals in seconds of arc
071115 703  0.0   0.0     071115 703  0.4+  0.6-    071116 G96  0.2-  0.1+
071115 703  0.0   0.3-    071115 703  0.3+  1.6+    071116 G96  0.2+  0.3-
071115 703  0.0   0.7-    071115 703  0.1+  0.1-    071116 G96  0.1+  0.3+
071115 703  0.1+  1.1+    071115 703  0.8-  1.1-    071116 G96  0.0   0.0

Ephemeris:
2007 VF191               a,e,i = 1.95, 0.42, 11                  q = 1.1320
Date    TT    R. A. (2000) Decl.     Delta      r     Elong.  Phase     V
2007 11 16    04 47.02   +09 20.5    0.201    1.178   157.6    18.6    20.0
2007 11 26    04 41.40   +19 33.4    0.225    1.210   171.3     7.1    19.9
2007 12 06    04 34.64   +27 24.2    0.264    1.248   174.2     4.6    20.2
2007 12 16    04 29.98   +32 41.5    0.318    1.292   163.5    12.5    21.0
2007 12 26    04 29.63   +35 56.3    0.386    1.340   153.8    18.9    21.7

Timothy B. Spahr             (C) Copyright 2007 MPC           M.P.E.C. 2007-W06

Read MPEC 2007-W05 Read MPEC 2007-W07


MPEC number:

Enter an MPEC number in one of the following forms:

  • 1997-B01 (the full form)
  • J97B01 (the packed version of the full form)
  • B01 (the abbreviated form)

Valid HTML 4.01!